Location: Newark
(37.7892°N, 97.1083°W)
Time: 17:40:54
(UTC+00:00)

ISS - Visible Passes

Search period start: 25 January 2021 00:00
Search period end: 04 February 2021 00:00
Orbit: 418 x 421 km, 51.6° (Epoch: 25 January)

Date Brightness Start Highest point End Pass type
(mag) Time Alt. Az. Time Alt. Az. Time Alt. Az.
31 Jan -1.0 01:40:23 10° NNW 01:40:45 11° NNW 01:40:45 11° NNW visible
01 Feb -1.5 00:53:25 10° N 00:54:55 12° NNE 00:55:27 12° NNE visible
02 Feb -1.7 01:41:45 10° NNW 01:43:12 20° NNW 01:43:12 20° NNW visible
03 Feb -2.3 00:54:33 10° NNW 00:57:17 22° NNE 00:58:05 20° NE visible
03 Feb -0.3 02:30:59 10° WNW 02:31:04 11° WNW 02:31:04 11° WNW visible
